This is the latest recevied weather packets stored in our database for station/object SP9KB-13. If no packets are shown the sender has not sent any weather packets the latest 10 day(s).
| Time | Temp. | Humidity | Pressure | Rain* | Wind** | Luminosity | Snow |
|---|---|---|---|---|---|---|---|
| 1778214836 | 10.56° C | 99% | 996.7 hPa | 1.27 mm | - | - | - |
| 1778214535 | 10.56° C | 99% | 996.6 hPa | 1.27 mm | - | - | - |
| 1778214235 | 10.56° C | 99% | 996.8 hPa | 0 mm | - | - | - |
| 1778213934 | 10.56° C | 99% | 996.6 hPa | 0 mm | - | - | - |
| 1778213633 | 10.56° C | 99% | 996.5 hPa | 1.78 mm | - | - | - |
| 1778213333 | 10.56° C | 99% | 996.5 hPa | 3.56 mm | - | - | - |
| 1778213032 | 10.56° C | 99% | 996.2 hPa | 1.78 mm | - | - | - |
| 1778212732 | 10.56° C | 99% | 996.3 hPa | 0 mm | - | - | - |
| 1778212431 | 10.56° C | 99% | 996.2 hPa | 1.27 mm | - | - | - |
| 1778212131 | 10.56° C | 99% | 996.3 hPa | 1.27 mm | - | - | - |
| 1778211830 | 10.56° C | 99% | 996.1 hPa | 1.78 mm | - | - | - |
| 1778211530 | 10.56° C | 99% | 996.2 hPa | 1.78 mm | - | - | - |
| 1778211229 | 10.56° C | 99% | 996.1 hPa | 0 mm | - | - | - |
| 1778210929 | 10.56° C | 99% | 996 hPa | 0 mm | - | - | - |
| 1778210628 | 10.56° C | 99% | 995.9 hPa | 0 mm | - | - | - |
| 1778210328 | 10.56° C | 99% | 996 hPa | 1.27 mm | - | - | - |
| 1778210027 | 10.56° C | 99% | 996.1 hPa | 1.27 mm | - | - | - |
| 1778209726 | 10.56° C | 99% | 996 hPa | 1.78 mm | - | - | - |
| 1778209426 | 10.56° C | 99% | 995.7 hPa | 1.78 mm | - | - | - |
| 1778209125 | 10.56° C | 99% | 996 hPa | 1.78 mm | - | - | - |
| 1778208825 | 10.56° C | 99% | 996 hPa | 0 mm | - | - | - |
| 1778208524 | 10.56° C | 99% | 996 hPa | 1.27 mm | - | - | - |
| 1778208224 | 11.11° C | 99% | 995.8 hPa | 4.06 mm | - | - | - |
| 1778207623 | 11.11° C | 99% | 995.9 hPa | 0 mm | - | - | - |
| 1778207322 | 11.11° C | 99% | 995.9 hPa | 0 mm | - | - | - |
* Rain latest hour (hover to see other rain measurements)
** Current wind speed in m/s (hover to see current wind gust speed)